Vorticity
7 9 10 9 10 11 18 14 8 6 6 7 11 12 13 10 10 12 13 15 14 15 14 12 14 15 14 11 9 19 4 3
14 9 8 11 17 5 10 5 5 9 12 11 11 10 7 5 9 17 16 18 18 16 18 15 13 14 14 11 11 11 18 4
11 11 15 10 11 4 3 9 11 9 9 9 9 10 8 7 12 16 15 18 17 13 13 17 16 15 15 16 14 13 12 22
12 10 10 6 4 4 11 14 13 10 10 11 9 8 8 9 14 18 20 15 15 14 15 15 13 13 3 6 14 11 9 22
7 7 5 2 6 13 9 8 8 8 10 9 8 8 9 13 15 18 18 21 11 17 18 10 8 11 8 8 6 13 5 11
6 4 1 4 7 9 12 9 8 10 10 7 5 5 6 10 20 24 24 21 19 21 19 21 17 14 13 13 17 13 14 10
5 2 2 4 10 12 9 8 9 10 9 6 5 5 3 8 17 27 21 24 16 10 14 20 20 18 18 18 17 18 15 20
4 1 3 9 11 8 9 10 11 9 8 6 5 5 2 3 18 21 23 21 20 18 13 13 16 18 19 16 16 17 19 22
-2 2 8 11 9 11 11 10 10 9 7 6 6 7 7 -2 8 21 20 29 24 8 14 11 13 17 23 22 19 20 20 22
8 8 8 10 14 13 9 10 9 8 6 6 6 8 7 5 -2 11 14 20 37 19 20 15 15 14 13 25 21 23 25 30
9 4 11 15 15 8 9 9 9 7 6 5 7 8 8 8 2 3 19 8 24 31 17 4 14 25 3 24 11 28 25 23
8 9 11 16 12 8 9 10 8 7 6 5 8 8 8 7 9 -4 19 11 10 34 26 26 17 -3 16 35 32 22 21 13
18 11 11 13 10 8 9 9 7 6 5 6 8 9 8 9 7 7 -8 12 12 6 34 27 31 26 22 15 9 15 12 39
19 7 14 12 9 9 8 9 7 6 6 7 8 9 9 9 8 7 8 -4 3 13 7 38 40 21 17 10 33 32 1 23
18 9 11 10 9 9 9 8 7 7 7 8 8 9 9 8 7 7 8 5 7 -2 9 15 19 44 32 3 8 31 19 19
11 13 10 10 9 9 9 9 8 7 8 9 9 9 8 7 8 8 9 8 7 4 4 -1 3 11 8 42 44 24 33 17
18 9 13 9 10 9 9 9 8 8 8 10 10 9 8 8 9 9 10 11 10 11 8 9 1 1 11 10 4 9 37 58
9 12 10 10 10 9 9 9 9 9 9 11 9 9 10 9 9 9 9 9 9 8 10 11 12 8 8 7 5 -3 -6 -1
12 10 10 10 10 9 10 10 9 9 11 11 9 10 9 8 7 8 8 8 8 8 7 8 8 9 10 11 11 9 8 5
Height
3101 3099 3098 3095 3093 3091 3088 3085 3083 3079 3075 3071 3068 3063 3060 3056 3052 3047 3043 3039 3035 3032 3031 3031 3032 3033 3035 3037 3039 3042 3046 3049
3095 3094 3092 3090 3088 3086 3083 3081 3078 3074 3070 3065 3062 3057 3052 3047 3041 3035 3030 3026 3023 3020 3018 3016 3016 3018 3020 3022 3024 3027 3032 3039
3091 3089 3087 3086 3083 3082 3079 3075 3072 3068 3064 3059 3054 3049 3043 3037 3032 3025 3018 3012 3009 3008 3005 3002 3002 3004 3006 3008 3010 3013 3017 3024
3087 3086 3084 3082 3080 3078 3074 3070 3066 3062 3059 3054 3049 3043 3036 3029 3023 3016 3009 3003 2998 2995 2993 2990 2989 2991 2993 2995 2997 3000 3002 3008
3085 3083 3082 3079 3077 3073 3069 3066 3062 3058 3053 3048 3042 3034 3028 3022 3011 3003 2998 2992 2987 2982 2980 2979 2978 2978 2980 2982 2984 2986 2988 2993
3082 3080 3079 3076 3072 3068 3065 3061 3057 3053 3048 3043 3037 3031 3024 3014 3006 2997 2989 2983 2978 2974 2970 2968 2967 2966 2967 2968 2970 2972 2974 2978
3080 3078 3076 3072 3068 3064 3061 3058 3053 3049 3044 3039 3033 3027 3020 3012 3003 2992 2982 2976 2972 2967 2963 2960 2958 2957 2956 2956 2956 2957 2960 2964
3076 3074 3071 3068 3064 3061 3058 3054 3050 3046 3041 3036 3030 3024 3017 3008 2998 2987 2977 2970 2965 2961 2956 2953 2950 2948 2947 2945 2945 2947 2948 2951
3073 3070 3067 3064 3061 3057 3054 3050 3046 3042 3037 3033 3027 3022 3015 3005 2996 2984 2973 2964 2959 2955 2949 2944 2942 2939 2937 2937 2935 2936 2939 2941
3069 3066 3063 3059 3056 3053 3050 3046 3043 3039 3035 3028 3024 3020 3012 3004 2995 2981 2971 2960 2953 2948 2942 2939 2937 2934 2931 2929 2928 2926 2928 2935
3064 3061 3058 3054 3051 3048 3046 3042 3040 3036 3031 3024 3022 3017 3010 3002 2993 2983 2971 2960 2952 2944 2939 2935 2933 2929 2926 2924 2922 2922 2923 2925
3058 3056 3053 3049 3046 3044 3042 3039 3036 3033 3026 3022 3020 3016 3009 3001 2993 2985 2973 2964 2955 2945 2938 2933 2929 2924 2922 2918 2917 2918 2920 2925
3051 3049 3047 3045 3042 3040 3038 3035 3033 3029 3024 3021 3018 3013 3007 3000 2993 2985 2977 2967 2957 2947 2937 2931 2926 2922 2919 2917 2915 2917 2920 2923
3045 3044 3042 3040 3038 3037 3034 3032 3029 3025 3021 3019 3015 3011 3006 2999 2993 2986 2979 2971 2964 2955 2946 2937 2929 2924 2921 2919 2913 2916 2918 2922
3039 3038 3037 3036 3034 3033 3031 3028 3026 3022 3020 3016 3013 3009 3005 2999 2993 2987 2981 2974 2968 2961 2953 2946 2937 2929 2925 2920 2918 2917 2916 2917
3034 3033 3032 3032 3031 3029 3027 3025 3022 3019 3017 3014 3011 3008 3004 2998 2993 2988 2983 2977 2970 2964 2959 2954 2947 2939 2930 2926 2922 2921 2919 2920
3028 3028 3028 3028 3027 3026 3024 3022 3019 3017 3015 3012 3009 3006 3002 2998 2994 2989 2984 2980 2974 2968 2963 2959 2954 2947 2939 2932 2929 2925 2922 2920
3025 3025 3025 3024 3023 3022 3021 3019 3017 3015 3012 3010 3008 3005 3001 2998 2993 2989 2986 2981 2976 2971 2967 2962 2958 2952 2946 2942 2938 2935 2930 2927
3023 3022 3022 3021 3020 3018 3017 3016 3014 3012 3010 3008 3006 3003 3000 2997 2993 2990 2986 2982 2978 2974 2968 2963 2960 2956 2951 2947 2944 2941 2937 2933